Aérodrome :
LOGIN :

S'inscrire | Disclaimer

   EN    FR    IT 

 










Légende :    VFR   VFR Marginal   IFR   IFR Intensif   IFR Très Intensif
Visi : 
Plafond : 
>= 8 km
>= 3000ft
5 à 8 km
1000 à 3000 ft
1500m à 5 km
500 à 1000 ft
800 à 1500m
200 à 500 ft
< 800m
< 200 ft
Symboles :   Orages  Brouillard  Fortes neiges  Fortes précipitations  Vent > 20 kt
SIGMETs :   Divers  Orages  Givrage  Turbulence  Onde Orograph.  Cendres Volcan.







- Altitude de l'aérodrome : 17 ft
- Code IATA : GRS


LIRS - Grosseto

DERNIER METAR :
  • 170455Z 05004KT CAVOK 19/12 Q1016 RMK FEW FEW100 VIS MIN 9999 WIND THR03 05003KT WIND THR21 05002KT BLU

METARs EXPIRÉS :
  • 170355Z 36003KT 330V040 CAVOK 19/13 Q1016 RMK FEW FEW200 VIS MIN 9999 WIND THR03 01005KT WIND THR21 34003KT BLU
  • 170255Z 03004KT CAVOK 19/12 Q1016

TAF TAF LIRS
Valide du 17 à 06h jusqu'au 17 à 15h UTC


170500Z 1706/1715 01005KT CAVOK
Pas de NOTAMs connus pour ce terrain.



MET'MAP, la Météo Aéronautique d'un coup d'oeil ! - Copyright ORBIFLY Décembre 2007 - Disclaimer

ORBIFLY MET'MAP TEAM :

Programmation & Développement : Alexandra Zaïnal
Conception & Développement : Baudouin d'Aumeries
Co-Programmation & Développement : Marc-Olivier Méhu
Soutien technique & logistique : Manuel Goepfert

Contact : metmap@orbifly.com




SOURCES & CREDITS :

   NOAA